Tracking 35275 objects as of 8-Sep-2026
HD Live streaming from Space Station
objects crossing your sky now

COSMOS 1941 DEB


COSMOS 1941 DEB is no longer on orbit


NORAD ID: 19100
Int'l Code: 1988-035J
Launch date: April 27, 1988
Source: Commonwealth of Independent States (former USSR) (CIS)
Launch site: TYURATAM MISSILE AND SPACE COMPLEX (TTMTR)
Decay date: 1988-05-12

Note: This is SATELLITE DEBRIS
Your satellite tracking list
Your tracking list is empty




NASA's NSSDC Master Catalog

Two Line Element Set (TLE):
1 19100U 88035  J 88132.76057391  .04850004 +48000-5 +28917-2 0  9992
2 19100 070.3469 354.2314 0027900 099.4157 261.1032 16.17248418002310
Source of the keplerian elements: AFSPC